Location: Curupao
(10.4996°N, 66.6442°W)
Time: 11:46:49
(UTC+00:00)

BREEZE-M DEB (TANK) - Pass Details

Date: 23 May 2024
Orbit: 305 x 16111 km, 49.4° (Epoch: 20 June)

Event Time Altitude Azimuth Distance (km) Brightness Sun altitude
Exits shadow 08:31:11 23° 225° (SW) 6,036 7.0 -21.6°
Maximum altitude 08:43:42 69° 303° (WNW) 1,647 4.5 -18.9°
Drops below altitude 10° 08:48:48 10° 28° (NNE) 2,373 6.3 -17.7°
Sets 08:50:13 0° 31° (NNE) 2,945 7.0 -17.4°
